Location: Chequamegon National Forest
(46.1070°N, 90.8420°W)
Time: 08:35:16
(UTC-05:00)

ISS - All Passes

Search period start: 18 April 2014 00:00
Search period end: 28 April 2014 00:00
Orbit: 414 x 419 km, 51.6° (Epoch: 18 April)

Date Brightness Start Highest point End Pass type
(mag) Time Alt. Az. Time Alt. Az. Time Alt. Az.
18 Apr - 15:36:25 10° S 15:38:44 18° SE 15:41:04 10° E daylight
18 Apr - 17:11:47 10° WSW 17:15:08 81° NNW 17:18:30 10° ENE daylight
18 Apr - 18:49:08 10° WNW 18:52:12 32° N 18:55:17 10° ENE daylight
18 Apr - 20:26:19 10° WNW 20:29:30 37° NNE 20:32:40 10° E visible
18 Apr - 22:03:04 10° WNW 22:06:24 62° SSW 22:09:43 10° SE visible
18 Apr - 23:42:22 10° SW 23:42:33 10° SW 23:42:44 10° SW visible
19 Apr - 14:49:43 10° SSE 14:50:37 11° SE 14:51:30 10° ESE daylight
19 Apr - 16:23:28 10° SW 16:26:48 67° SSE 16:30:08 10° ENE daylight
19 Apr - 18:00:34 10° W 18:03:43 36° NNW 18:06:53 10° ENE daylight
19 Apr - 19:37:55 10° WNW 19:41:01 32° N 19:44:06 10° ENE daylight
19 Apr - 21:14:41 10° WNW 21:18:04 86° NNE 21:21:25 10° ESE visible
19 Apr - 22:52:13 10° W 22:54:26 17° SW 22:56:38 10° S visible
20 Apr - 15:35:18 10° SW 15:38:28 42° SE 15:41:40 10° ENE daylight
20 Apr - 17:11:59 10° W 17:15:14 44° NNW 17:18:29 10° ENE daylight
20 Apr - 18:49:26 10° WNW 18:52:28 30° N 18:55:30 10° ENE daylight
20 Apr - 20:26:18 10° WNW 20:29:38 60° NNE 20:32:58 10° ESE visible
20 Apr - 22:03:20 10° W 22:06:12 26° SW 22:09:03 10° SSE visible
21 Apr - 14:47:19 10° SSW 14:50:10 26° SE 14:53:01 10° E daylight
21 Apr - 16:23:24 10° WSW 16:26:43 60° NNW 16:30:03 10° ENE daylight
21 Apr - 18:00:51 10° WNW 18:03:53 30° N 18:06:55 10° ENE daylight
21 Apr - 19:37:52 10° WNW 19:41:08 45° NNE 19:44:22 10° E daylight
21 Apr - 21:14:41 10° WNW 21:17:53 41° SW 21:21:03 10° SE visible
22 Apr - 13:59:40 10° S 14:01:52 17° SE 14:04:04 10° E daylight
22 Apr - 15:34:52 10° WSW 15:38:13 86° NNW 15:41:35 10° ENE daylight
22 Apr - 17:12:11 10° WNW 17:15:16 32° N 17:18:21 10° ENE daylight
22 Apr - 18:49:23 10° WNW 18:52:33 36° NNE 18:55:41 10° E daylight
22 Apr - 20:26:07 10° WNW 20:29:28 67° SSW 20:32:47 10° SE visible
22 Apr - 22:04:45 10° WSW 22:05:38 11° SW 22:06:31 10° SSW visible
23 Apr - 14:46:26 10° SW 14:49:44 62° SSE 14:53:03 10° ENE daylight
23 Apr - 16:23:28 10° W 16:26:37 37° NNW 16:29:47 10° ENE daylight
23 Apr - 18:00:49 10° WNW 18:03:53 32° N 18:06:58 10° ENE daylight
23 Apr - 19:37:35 10° WNW 19:40:57 81° NNE 19:44:18 10° ESE daylight
23 Apr - 21:15:00 10° W 21:17:20 18° SW 21:19:39 10° S visible
24 Apr - 13:58:07 10° SSW 14:01:15 39° SE 14:04:24 10° ENE daylight
24 Apr - 15:34:43 10° W 15:37:58 46° NNW 15:41:13 10° ENE daylight
24 Apr - 17:12:10 10° WNW 17:15:11 30° N 17:18:12 10° ENE daylight
24 Apr - 18:49:02 10° WNW 18:52:21 57° NNE 18:55:40 10° ESE daylight
24 Apr - 20:26:01 10° W 20:28:56 28° SW 20:31:50 10° SSE daylight
25 Apr - 13:10:01 10° SSW 13:12:47 24° SE 13:15:33 10° E daylight
25 Apr - 14:45:59 10° WSW 14:49:18 63° NNW 14:52:38 10° ENE daylight
25 Apr - 16:23:24 10° WNW 16:26:26 30° N 16:29:28 10° ENE daylight
25 Apr - 18:00:26 10° WNW 18:03:40 43° NNE 18:06:53 10° E daylight
25 Apr - 19:37:13 10° WNW 19:40:26 44° SW 19:43:38 10° SE daylight
26 Apr - 12:22:18 10° S 12:24:20 15° SE 12:26:22 10° E daylight
26 Apr - 13:57:18 10° WSW 14:00:38 89° SSE 14:04:00 10° ENE daylight
26 Apr - 15:34:34 10° WNW 15:37:39 33° N 15:40:44 10° ENE daylight
26 Apr - 17:11:47 10° WNW 17:14:55 35° NNE 17:18:02 10° E daylight
26 Apr - 18:48:30 10° WNW 18:51:51 72° SSW 18:55:10 10° SE daylight
26 Apr - 20:26:46 10° WSW 20:28:02 12° SW 20:29:18 10° SSW daylight
27 Apr - 13:08:42 10° SW 13:11:59 58° SSE 13:15:17 10° ENE daylight
27 Apr - 14:45:41 10° W 14:48:50 38° NNW 14:52:01 10° ENE daylight
27 Apr - 16:23:03 10° WNW 16:26:06 31° N 16:29:09 10° ENE daylight
27 Apr - 17:59:48 10° WNW 18:03:09 76° NNE 18:06:30 10° ESE daylight
27 Apr - 19:37:07 10° W 19:39:34 19° SW 19:42:00 10° S daylight
